Location: Kalberh�ni
(46.4610°N, 7.2453°E)
Time: 05:52:22
(UTC+00:00)

Cosmos 2333 Rocket - Pass Details

Date: 27 October 2021
Orbit: 837 x 865 km, 70.8° (Epoch: 05 December)

Event Time Altitude Azimuth Distance (km) Brightness Sun altitude
Exits shadow 04:34:44 11° 320° (NW) 2,409 4.2 -16.2°
Maximum altitude 04:39:50 42° 252° (WSW) 1,213 2.6 -15.3°
Drops below altitude 10° 04:45:12 10° 183° (S) 2,498 4.7 -14.4°
Sets 04:47:46 0° 177° (S) 3,431 5.5 -13.9°
